Hourly Weather Roundup
Issued by NWS Central Illinois

Home | Current Version | Previous Version | Text Only | Print | Product List | Glossary On
Versions: 1 2 3 4 5 6 7 8 9 10 11 12 13 14 15 16 17 18 19 20 21 22 23 24 25 26 27 28 29 30 31 32 33 34 35 36 37 38 39 40 41 42 43 44 45 46 47 48 49 50
000
NZUS43 KILX 241910
HWRILX

AREA WEATHER ROUNDUP
NATIONAL WEATHER SERVICE, LINCOLN IL
200 PM CDT SUN JUL 24 2016


CITY           SKY/WX    TMP DP  RH WIND       PRES   REMARKS
BLOOMINGTON    MOSUNNY   89  80  74 S16       29.94F HX 106
CHAMPAIGN      SUNNY     88  77  69 S10       29.96F HX 100
DANVILLE       MOSUNNY   89  80  74 SW8       29.93F HX 105
DECATUR        MOSUNNY   92  77  61 S13       29.95S HX 105
EFFINGHAM      SUNNY     92  78  64 S8        29.98S HX 106
FLORA          MOSUNNY   91  79  67 S8        29.97S HX 107
GALESBURG      SUNNY     92  77  62 SW10      29.89S HX 106
JACKSONVILLE   SUNNY     92  81  70 S9        29.91F HX 111
LACON          PTSUNNY   91  79  66 SW10G16   29.87S HX 107
LAWRENCEVILLE  MOSUNNY   90  79  70 S12       29.98F HX 106
LITCHFIELD     SUNNY     90  79  69 S9        29.95F HX 105
$$


CITY           SKY/WX    TMP DP  RH WIND       PRES   REMARKS
LINCOLN        CLOUDY    90  82  76 S10G17    29.92F HX 110
MACOMB         CLOUDY    91  80  68 SW12      29.90F HX 108
MATTOON        SUNNY     89  76  65 S10       29.96F HX 100
MT CARMEL AP   MOSUNNY   89  78  68 SW7       29.98F HX 103
OLNEY-NOBLE AP SUNNY     90  79  70 S6        29.98S HX 105
PARIS          MOSUNNY   90  81  74 S3        29.97F HX 108
PEORIA         CLOUDY    92  82  72 S13       29.88F HX 114
PONTIAC        CLOUDY    90  82  78 S12       29.91F HX 110
RANTOUL        NOT AVBL
ROBINSON       MOSUNNY   91  77  64 S10       29.98S HX 104
SPRINGFIELD    MOSUNNY   92  81  70 S12       29.92F HX 112
TAYLORVILLE    MOSUNNY   91  81  72 NW8       29.95S HX 109
$$

...REGIONAL REPORTS...


CITY           SKY/WX    TMP DP  RH WIND       PRES   REMARKS
CHICAGO O`HARE PTSUNNY   91  77  63 S17G24    29.86F HX 104
KANKAKEE       NOT AVBL
MOLINE         MOSUNNY   92  77  61 W10       29.86S HX 105
MOUNT STERLING SUNNY     92  79  66 SW7       29.90F HX 108
MOUNT VERNON   SUNNY     95  75  52 SW10      29.97F HX 107
PITTSFIELD     SUNNY     93  81  67 S9        29.92F HX 113
QUINCY         CLOUDY    95  78  58 SW9       29.90F HX 111
ROCKFORD       PTSUNNY   94  76  56 SW18      29.87S HX 107
$$


CITY           SKY/WX    TMP DP  RH WIND       PRES   REMARKS
BURLINGTON     CLOUDY    91  80  70 SW8       29.88S HX 109
CEDAR RAPIDS   CLOUDY    84  80  88 N9        29.89S HX  97
DES MOINES     CLOUDY    87  66  49 N10       29.93S HX  89
KIRKSVILLE     PTSUNNY   91  74  57 W9        29.92S HX 100
OTTUMWA        PTSUNNY   87  79  76 NW13      29.89R HX 101
ST LOUIS       MOSUNNY   97  75  49 SW7       29.94F HX 109
$$


CITY           SKY/WX    TMP DP  RH WIND       PRES   REMARKS
TERRE HAUTE    MOSUNNY   91  76  61 S13       29.97F HX 103
EVANSVILLE     MOSUNNY   91  75  59 S9        29.98F HX 101
INDIANAPOLIS   MOSUNNY   91  75  59 SW8       29.99F HX 101
LAFAYETTE      MOSUNNY   90  77  65 SW12      29.95F HX 103
MADISON        PTSUNNY   88  78  72 W6        29.83S HX 101
MILWAUKEE      PTSUNNY   91  78  65 SW20      29.82F HX 106
$$






USA.gov is the U.S. government's official web portal to all federal, state and local government web resources and services.